CW5532 Weather Reports


time (UTC)temp
C
wind
direction
speed
KPH
gust
KPH
rain 1hr
cm
rain 24hr
cm
rain mn
cm
humidity
%
barometer
mb
20260504070240 15 102 0.0 0.0 0.00 0.00 0.00 82 1011.5
20260504060239 12 275 0.0 0.0 0.00 0.00 0.00 85 1011.7
20260504050739 12 255 0.0 0.0 0.00 0.00 0.00 85 1011.8
20260504043239 12 219 0.0 0.0 0.00 0.00 0.00 85 1011.8
20260504040739 12 87 0.0 0.0 0.00 0.00 0.00 85 1011.8
20260504040238 12 87 0.0 0.0 0.00 0.00 0.00 85 1011.9
20260504033739 11 87 0.0 0.0 0.00 0.00 0.00 85 1012.0
20260504023738 11 87 0.0 0.0 0.00 0.00 0.00 84 1011.9
20260504023239 11 87 0.0 0.0 0.00 0.00 0.00 84 1012.0
20260504020738 11 87 0.0 0.0 0.00 0.00 0.00 84 1012.0
20260504013738 12 87 0.0 0.0 0.00 0.00 0.00 84 1012.1
20260504013239 12 87 0.0 0.0 0.00 0.00 0.00 84 1012.0
20260504003739 12 87 0.0 0.0 0.00 0.00 0.00 83 1012.5
20260504000241 12 87 0.0 0.0 0.00 0.00 0.00 84 1012.6
20260503233239 12 87 0.0 0.0 0.00 0.00 0.00 84 1012.6
20260503223239 12 87 0.0 0.0 0.00 0.00 0.00 83 1012.7
20260503220239 13 87 0.0 0.0 0.00 0.00 0.00 83 1012.7
20260503213738 13 87 0.0 0.0 0.00 0.00 0.00 82 1012.7
20260503213238 13 87 0.0 0.0 0.00 0.00 0.00 82 1012.7
20260503210738 13 87 0.0 0.0 0.00 0.00 0.00 82 1013.0
20260503210238 13 87 0.0 0.0 0.00 0.00 0.00 81 1013.0
20260503203738 14 87 0.0 0.0 0.00 0.00 0.00 80 1013.0
20260503200238 14 99 0.0 0.0 0.00 0.00 0.00 79 1013.0
20260503193738 14 99 0.0 0.0 0.00 0.00 0.00 78 1012.9
20260503190737 15 98 0.0 0.0 0.00 0.00 0.00 78 1012.4
20260503190238 15 102 0.0 0.0 0.00 0.00 0.00 78 1012.4
20260503183738 15 94 0.0 0.0 0.00 0.00 0.00 78 1012.7
20260503183237 15 83 0.0 8.0 0.00 0.00 0.00 78 1012.5
20260503180238 15 105 1.6 14.5 0.00 0.00 0.00 79 1012.4
20260503173737 16 142 0.0 8.0 0.00 0.00 0.00 78 1012.4
20260503170237 16 124 3.2 19.3 0.00 0.00 0.00 75 1012.1
20260503150738 17 123 1.6 4.8 0.00 0.00 0.00 68 1012.1
20260503150237 17 102 1.6 9.7 0.00 0.00 0.00 67 1012.1
20260503140237 18 115 0.0 0.0 0.00 0.00 0.00 62 1012.7